TimeEDT,TemperatureF,Dew PointF,Humidity,Sea Level PressureIn,VisibilityMPH,Wind Direction,Wind SpeedMPH,Gust SpeedMPH,PrecipitationIn,Events,Conditions,WindDirDegrees,DateUTC
12:15 AM,21.2,17.6,86,30.05,10.0,WSW,4.6,-,N/A,,Clear,240,2013-03-22 04:15:00
12:35 AM,21.2,17.6,86,30.05,10.0,SW,4.6,-,N/A,,Clear,230,2013-03-22 04:35:00
12:55 AM,21.2,17.6,86,30.04,10.0,SW,4.6,-,N/A,,Clear,230,2013-03-22 04:55:00
1:15 AM,21.2,17.6,86,30.04,10.0,SW,3.5,-,N/A,,Clear,220,2013-03-22 05:15:00
1:35 AM,19.4,17.6,93,30.04,10.0,SW,3.5,-,N/A,,Clear,220,2013-03-22 05:35:00
1:55 AM,19.4,17.6,93,30.03,10.0,SW,3.5,-,N/A,,Clear,230,2013-03-22 05:55:00
2:15 AM,19.4,17.6,93,30.03,10.0,SW,4.6,-,N/A,,Clear,230,2013-03-22 06:15:00
2:35 AM,19.4,17.6,93,30.03,10.0,SW,4.6,-,N/A,,Clear,230,2013-03-22 06:35:00
2:55 AM,19.4,15.8,86,30.03,10.0,SW,3.5,-,N/A,,Clear,230,2013-03-22 06:55:00
3:15 AM,19.4,17.6,93,30.03,10.0,SW,3.5,-,N/A,,Clear,220,2013-03-22 07:15:00
3:35 AM,19.4,15.8,86,30.03,10.0,Calm,Calm,-,N/A,,Clear,0,2013-03-22 07:35:00
3:55 AM,17.6,15.8,93,30.03,10.0,SW,4.6,-,N/A,,Clear,230,2013-03-22 07:55:00
4:15 AM,17.6,15.8,93,30.04,10.0,WSW,5.8,-,N/A,,Clear,240,2013-03-22 08:15:00
4:35 AM,19.4,15.8,86,30.03,10.0,WSW,4.6,-,N/A,,Clear,240,2013-03-22 08:35:00
4:55 AM,19.4,15.8,86,30.04,10.0,WSW,4.6,-,N/A,,Clear,240,2013-03-22 08:55:00
5:15 AM,17.6,15.8,93,30.04,10.0,WSW,5.8,-,N/A,,Clear,240,2013-03-22 09:15:00
5:35 AM,19.4,14.0,80,30.04,10.0,WSW,4.6,-,N/A,,Clear,240,2013-03-22 09:35:00
5:55 AM,17.6,14.0,86,30.04,10.0,WSW,5.8,-,N/A,,Clear,240,2013-03-22 09:55:00
6:15 AM,17.6,14.0,86,30.05,10.0,WSW,5.8,-,N/A,,Clear,240,2013-03-22 10:15:00
6:35 AM,19.4,14.0,80,30.05,10.0,WSW,5.8,-,N/A,,Clear,240,2013-03-22 10:35:00
6:55 AM,19.4,14.0,80,30.06,10.0,WSW,5.8,-,N/A,,Clear,240,2013-03-22 10:55:00
7:15 AM,19.4,14.0,80,30.06,10.0,WSW,5.8,-,N/A,,Clear,240,2013-03-22 11:15:00
7:35 AM,19.4,14.0,80,30.07,10.0,WSW,4.6,-,N/A,,Clear,240,2013-03-22 11:35:00
7:55 AM,19.4,14.0,80,30.07,10.0,SW,4.6,-,N/A,,Clear,230,2013-03-22 11:55:00
8:15 AM,19.4,15.8,86,30.08,10.0,SW,3.5,-,N/A,,Clear,230,2013-03-22 12:15:00
8:35 AM,21.2,17.6,86,30.08,10.0,Calm,Calm,-,N/A,,Clear,0,2013-03-22 12:35:00
8:55 AM,23.0,17.6,80,30.09,10.0,Calm,Calm,-,N/A,,Clear,0,2013-03-22 12:55:00
9:15 AM,26.6,17.6,69,30.08,10.0,Calm,Calm,-,N/A,,Clear,0,2013-03-22 13:15:00
9:35 AM,28.4,17.6,64,30.08,10.0,Calm,Calm,-,N/A,,Clear,0,2013-03-22 13:35:00
9:55 AM,30.2,17.6,60,30.09,10.0,Calm,Calm,-,N/A,,Clear,0,2013-03-22 13:55:00
10:15 AM,32.0,14.0,48,30.09,10.0,Calm,Calm,-,N/A,,Clear,0,2013-03-22 14:15:00
10:35 AM,32.0,15.8,51,30.10,10.0,Calm,Calm,-,N/A,,Clear,0,2013-03-22 14:35:00
10:55 AM,32.0,14.0,48,30.10,10.0,Calm,Calm,-,N/A,,Clear,0,2013-03-22 14:55:00
11:15 AM,32.0,14.0,48,30.09,10.0,Calm,Calm,-,N/A,,Clear,0,2013-03-22 15:15:00
11:35 AM,32.0,14.0,48,30.09,10.0,Calm,Calm,-,N/A,,Clear,0,2013-03-22 15:35:00
11:55 AM,33.8,17.6,52,30.08,10.0,South,3.5,-,N/A,,Clear,180,2013-03-22 15:55:00
12:15 PM,33.8,14.0,44,30.08,10.0,SSW,3.5,-,N/A,,Clear,210,2013-03-22 16:15:00
12:35 PM,33.8,15.8,48,30.07,10.0,Calm,Calm,-,N/A,,Clear,0,2013-03-22 16:35:00
12:55 PM,35.6,14.0,41,30.07,10.0,Calm,Calm,-,N/A,,Clear,0,2013-03-22 16:55:00
1:15 PM,35.6,14.0,41,30.06,10.0,ESE,3.5,-,N/A,,Clear,110,2013-03-22 17:15:00
1:35 PM,35.6,15.8,44,30.06,10.0,West,5.8,-,N/A,,Clear,270,2013-03-22 17:35:00
1:55 PM,37.4,14.0,38,30.05,10.0,Calm,Calm,-,N/A,,Clear,0,2013-03-22 17:55:00
2:15 PM,37.4,14.0,38,30.05,10.0,ESE,4.6,-,N/A,,Clear,110,2013-03-22 18:15:00
2:35 PM,37.4,15.8,41,30.04,10.0,Calm,Calm,-,N/A,,Clear,0,2013-03-22 18:35:00
2:55 PM,41.0,17.6,39,30.03,10.0,Calm,Calm,-,N/A,,Clear,0,2013-03-22 18:55:00
3:15 PM,41.0,17.6,39,30.03,10.0,North,3.5,-,N/A,,Clear,10,2013-03-22 19:15:00
3:35 PM,41.0,17.6,39,30.02,10.0,Calm,Calm,-,N/A,,Clear,0,2013-03-22 19:35:00
3:55 PM,41.0,17.6,39,30.01,10.0,WSW,4.6,-,N/A,,Clear,240,2013-03-22 19:55:00
4:15 PM,42.8,17.6,36,30.01,10.0,Calm,Calm,-,N/A,,Clear,0,2013-03-22 20:15:00
4:35 PM,42.8,17.6,36,30.00,10.0,SSW,3.5,-,N/A,,Clear,200,2013-03-22 20:35:00
4:55 PM,42.8,15.8,34,30.00,10.0,Calm,Calm,-,N/A,,Clear,0,2013-03-22 20:55:00
5:15 PM,44.6,19.4,37,30.00,10.0,West,4.6,-,N/A,,Clear,270,2013-03-22 21:15:00
5:35 PM,42.8,19.4,39,30.00,10.0,Calm,Calm,-,N/A,,Scattered Clouds,0,2013-03-22 21:35:00
5:55 PM,42.8,17.6,36,30.00,7.0,NW,3.5,-,N/A,,Overcast,310,2013-03-22 21:55:00
6:15 PM,42.8,19.4,39,30.00,10.0,WNW,3.5,-,N/A,,Overcast,290,2013-03-22 22:15:00
6:35 PM,41.0,19.4,42,30.00,10.0,WNW,5.8,-,N/A,,Overcast,290,2013-03-22 22:35:00
6:55 PM,41.0,19.4,42,30.00,10.0,NW,3.5,-,N/A,,Overcast,320,2013-03-22 22:55:00
7:15 PM,41.0,19.4,42,30.01,10.0,NW,3.5,-,N/A,,Overcast,320,2013-03-22 23:15:00
7:35 PM,41.0,19.4,42,30.01,10.0,NNW,3.5,-,N/A,,Overcast,340,2013-03-22 23:35:00
7:55 PM,41.0,19.4,42,30.02,10.0,Calm,Calm,-,N/A,,Overcast,0,2013-03-22 23:55:00
8:15 PM,39.2,21.2,49,30.02,10.0,Calm,Calm,-,N/A,,Overcast,0,2013-03-23 00:15:00
8:35 PM,39.2,23.0,52,30.02,10.0,Calm,Calm,-,N/A,,Overcast,0,2013-03-23 00:35:00
8:55 PM,39.2,21.2,49,30.03,10.0,Calm,Calm,-,N/A,,Overcast,0,2013-03-23 00:55:00
9:15 PM,37.4,23.0,56,30.03,10.0,Calm,Calm,-,N/A,,Overcast,0,2013-03-23 01:15:00
9:35 PM,37.4,23.0,56,30.03,10.0,Calm,Calm,-,N/A,,Overcast,0,2013-03-23 01:35:00
9:55 PM,37.4,26.6,65,30.04,10.0,Calm,Calm,-,N/A,,Overcast,0,2013-03-23 01:55:00
10:15 PM,37.4,23.0,56,30.04,10.0,Calm,Calm,-,N/A,,Overcast,0,2013-03-23 02:15:00
10:35 PM,37.4,26.6,65,30.04,10.0,Calm,Calm,-,N/A,,Overcast,0,2013-03-23 02:35:00
10:55 PM,37.4,23.0,56,30.04,10.0,Calm,Calm,-,N/A,,Overcast,0,2013-03-23 02:55:00
11:15 PM,37.4,23.0,56,30.03,10.0,Calm,Calm,-,N/A,,Overcast,0,2013-03-23 03:15:00
11:35 PM,37.4,24.8,60,30.04,10.0,Calm,Calm,-,N/A,,Overcast,0,2013-03-23 03:35:00
11:55 PM,37.4,23.0,56,30.04,10.0,WSW,3.5,-,N/A,,Overcast,250,2013-03-23 03:55:00